[[{"header":{"parameterUnit":"m.s-1","parameterCategory":1,"la1":30.2991,"la2":30.254,"lo1":-89.0895,"lo2":-89.0444,"dy":0.0017,"dx":0.0017,"nx":28,"ny":28,"refTime":"2025-11-17T09:00:00:Z","depth":0,"parameterNumber":2,"parameterNumberName":"U-component_of_WINDS"},"data":[0,0,0,0,0,0,0,0,0,0,0,0,0,0,0,0,0,0,0,0,0,0,0,0,0,0,0,0,0,0,0,0,0,0,0,0,0,0,0,0,0,0,0,0,0,0,0,0,0,0,0,0,0,0,0,0,0,0,0.1412,0.1413,0,0.1449,0.1449,0.145,0.1442,0.1441,0.144,0.144,0.1477,0.1479,0.148,0,0,0,0,0,0,0,0,0,0,0,0,0,0.1336,0.1337,0.1412,0.1413,0.1413,0.1449,0.1449,0.145,0.1442,0.1441,0.144,0.1439,0.1477,0.1479,0.1481,0,0,0,0,0,0,0,0,0,0,0,0,0,0.137,0.1338,0.1412,0.1413,0.1414,0.1449,0.1449,0.145,0.1442,0.1441,0.144,0.1439,0.1476,0.1478,0.1481,0.1517,0,0,0.1488,0.1489,0,0,0,0,0,0,0,0,0.1368,0.1373,0.1413,0.1413,0.1414,0.144,0.1436,0.1472,0.1442,0.1431,0.144,0.1439,0.1466,0.1469,0.1478,0.1518,0.152,0.1489,0.149,0.1491,0.1492,0,0,0,0,0,0,0,0.1366,0.1371,0.1427,0.1413,0.1414,0.1412,0.1416,0.1443,0.1454,0.1432,0.1432,0.1436,0.1466,0.1476,0.1479,0.152,0.1489,0.1491,0.1492,0.1493,0.1593,0.1594,0,0,0,0,0,0,0.1363,0.137,0.1426,0.1428,0.1388,0.1415,0.1419,0.1432,0.1453,0.1456,0.1437,0.1436,0.1472,0.1476,0.148,0.1524,0.1491,0.1493,0.1495,0.1592,0.1593,0.1594,0,0,0,0,0,0,0.1361,0.1368,0.1424,0.1399,0.1406,0.1417,0.1432,0.1434,0.1444,0.1457,0.1459,0.1445,0.1471,0.1477,0.1508,0.1525,0.1495,0.1497,0.159,0.1592,0.1594,0.1612,0,0,0,0,0,0,0.1359,0.1368,0.1381,0.1399,0.1407,0.1451,0.1433,0.1435,0.1448,0.1447,0.1465,0.1467,0.1471,0.1504,0.151,0.1528,0.1499,0.1589,0.1591,0.1593,0.161,0.1614,0.1618,0,0,0,0,0,0.1356,0.1385,0.1382,0.1389,0.1424,0.1452,0.1457,0.146,0.1449,0.1463,0.1472,0.1467,0.1522,0.1507,0.1514,0.1533,0.1588,0.159,0.1593,0.1608,0.1613,0.1618,0,0,0,0,0,0,0.1369,0.1387,0.1384,0.1419,0.1434,0.1451,0.1469,0.1465,0.1484,0.1482,0.1485,0.149,0.1522,0.153,0.1514,0.1569,0.1553,0.1557,0.1562,0.1568,0.1571,0.1569,0.1501,0,0,0,0,0,0.1375,0.1397,0.1411,0.1441,0.1448,0.1457,0.1469,0.1471,0.1487,0.1493,0.1504,0.1519,0.154,0.1554,0.1574,0.161,0.1615,0.1627,0.1631,0.1634,0.1638,0.1659,0.1664,0.1603,0.1603,0.1603,0,0,0.139,0.1402,0.1415,0.1443,0.1455,0.1477,0.1463,0.1486,0.1503,0.1497,0.1527,0.1535,0.1553,0.1587,0.1603,0.1595,0.1656,0.1637,0.164,0.1642,0.1662,0.1668,0.1673,0.1605,0.1604,0.1604,0,0,0.1427,0.1438,0.1464,0.1477,0.1495,0.15,0.1507,0.1524,0.1529,0.156,0.1556,0.1575,0.1611,0.1624,0.1635,0.1678,0.1674,0.1684,0.1705,0.1725,0.173,0.1735,0.1751,0.1756,0.1687,0.1688,0.1688,0,0.1443,0.1476,0.1478,0.1503,0.1515,0.151,0.1537,0.1549,0.1572,0.1582,0.1573,0.1618,0.1629,0.1667,0.1677,0.1686,0.1694,0.1682,0.1729,0.1734,0.1738,0.1753,0.1759,0.1689,0.1689,0.1688,0.1688,0,0.1494,0.1517,0.1536,0.1559,0.1574,0.1599,0.1606,0.162,0.162,0.1627,0.1658,0.1672,0.1695,0.1704,0.1704,0.1741,0.1736,0.1728,0.1713,0.1745,0.176,0.1765,0.169,0.169,0.169,0.1689,0,0,0.1541,0.1566,0.1573,0.1583,0.1603,0.1621,0.1646,0.1669,0.1681,0.1698,0.172,0.175,0.1743,0.1756,0.1757,0.1774,0.1809,0.1764,0.1765,0.1773,0.1852,0.1859,0.1866,0.1806,0.1807,0.1808,0.1851,0,0.1582,0.1626,0.1629,0.167,0.1691,0.1687,0.1709,0.1723,0.173,0.175,0.1757,0.1779,0.1767,0.1775,0.1792,0.1801,0.1825,0.1797,0.1827,0.1828,0.1824,0.1874,0.1881,0.1922,0.1857,0.1858,0.1859,0,0.1635,0.1653,0.1696,0.1713,0.1722,0.1742,0.1763,0.1781,0.1798,0.1801,0.1816,0.1815,0.1841,0.1824,0.186,0.1842,0.1854,0.186,0.1861,0.1865,0.1846,0.188,0.1935,0.1941,0.1867,0.1867,0.1866,0,0.1666,0.1701,0.1732,0.1741,0.1761,0.1775,0.1784,0.18,0.1813,0.1832,0.1841,0.1862,0.1874,0.189,0.1895,0.1882,0.1932,0.1915,0.1936,0.1936,0.1948,0.1948,0.2007,0.1954,0.1954,0.1954,0.1953,0,0.1712,0.1738,0.1746,0.1765,0.1795,0.1798,0.1827,0.1836,0.1849,0.187,0.1867,0.1886,0.1891,0.1911,0.1915,0.1945,0.195,0.1955,0.1956,0.1956,0.1956,0.1965,0.1963,0.1955,0.1955,0.1954,0.1954,0,0.1753,0.1759,0.1792,0.1808,0.1813,0.1835,0.1849,0.1867,0.1873,0.1899,0.1906,0.1915,0.1939,0.1945,0.1974,0.1976,0.2013,0.201,0.2007,0.2008,0.203,0.2028,0.2098,0.2108,0.2047,0.2047,0.2048,0,0.1782,0.1802,0.1821,0.1835,0.1845,0.1866,0.188,0.1884,0.1898,0.1919,0.1935,0.1958,0.1977,0.2016,0.2025,0.2047,0.2046,0.2069,0.205,0.205,0.2048,0.2048,0.205,0.2073,0.2074,0.2075,0.2075,0,0.1834,0.1836,0.1856,0.1877,0.1894,0.1911,0.1927,0.1938,0.1944,0.1961,0.1985,0.2,0.2029,0.2053,0.2075,0.2084,0.2081,0.2081,0.2087,0.2089,0.2087,0.209,0.2019,0.208,0.2079,0.2079,0.2079,0.2078,0.1871,0.1889,0.1905,0.1928,0.194,0.1956,0.1974,0.1982,0.2003,0.2027,0.2027,0.2054,0.2071,0.21,0.2111,0.2132,0.2125,0.2134,0.2137,0.2139,0.2142,0.2082,0.2136,0.2136,0.2136,0.2136,0.2135,0,0.1924,0.1934,0.1954,0.1977,0.1995,0.199,0.2007,0.2023,0.2047,0.2062,0.2081,0.2109,0.2132,0.2144,0.2167,0.2182,0.2181,0.2188,0.2188,0.219,0.2146,0.2139,0.2188,0.2188,0.2188,0.2188,0.2188,0.2188,0.1953,0.1984,0.1988,0.2026,0.2036,0.2062,0.2073,0.2087,0.2099,0.2131,0.2151,0.2158,0.2172,0.2196,0.2217,0.222,0.2229,0.2237,0.2239,0.2198,0.2193,0.2188,0.2181,0.2239,0.2239,0.2282,0.2282,0.2282]},{"header":{"parameterUnit":"m.s-1","parameterCategory":1,"la1":30.2991,"la2":30.254,"lo1":-89.0895,"lo2":-89.0444,"dy":0.0017,"dx":0.0017,"nx":28,"ny":28,"refTime":"2025-11-17T09:00:00:Z","depth":0,"parameterNumber":3,"parameterNumberName":"V-component_of_WINDS"},"data":[0,0,0,0,0,0,0,0,0,0,0,0,0,0,0,0,0,0,0,0,0,0,0,0,0,0,0,0,0,0,0,0,0,0,0,0,0,0,0,0,0,0,0,0,0,0,0,0,0,0,0,0,0,0,0,0,0,0,-0.6227,-0.6228,0,-0.6261,-0.6261,-0.6261,-0.6283,-0.6283,-0.6283,-0.6283,-0.6315,-0.6316,-0.6317,0,0,0,0,0,0,0,0,0,0,0,0,0,-0.6182,-0.6182,-0.6227,-0.6228,-0.6228,-0.626,-0.6261,-0.6261,-0.6283,-0.6283,-0.6283,-0.6283,-0.6315,-0.6316,-0.6317,0,0,0,0,0,0,0,0,0,0,0,0,0,-0.6207,-0.6183,-0.6227,-0.6243,-0.6245,-0.626,-0.6261,-0.6261,-0.6283,-0.6283,-0.6283,-0.6284,-0.6315,-0.6316,-0.6317,-0.6319,0,0,-0.632,-0.6321,0,0,0,0,0,0,0,0,-0.6205,-0.6208,-0.624,-0.6242,-0.6244,-0.6268,-0.6256,-0.6281,-0.6283,-0.6268,-0.6283,-0.6284,-0.6299,-0.6302,-0.6307,-0.6321,-0.6322,-0.632,-0.6321,-0.6321,-0.6322,0,0,0,0,0,0,0,-0.6203,-0.6207,-0.624,-0.6241,-0.6243,-0.6248,-0.6252,-0.6261,-0.6282,-0.627,-0.6271,-0.6275,-0.63,-0.6306,-0.6308,-0.6322,-0.632,-0.6321,-0.6322,-0.6322,-0.634,-0.6339,0,0,0,0,0,0,-0.6199,-0.6205,-0.6239,-0.6241,-0.6225,-0.6248,-0.6253,-0.626,-0.6282,-0.6286,-0.6275,-0.6276,-0.6304,-0.6307,-0.6309,-0.6314,-0.6321,-0.6322,-0.6323,-0.634,-0.634,-0.6339,0,0,0,0,0,0,-0.6198,-0.6202,-0.6238,-0.6224,-0.6229,-0.6249,-0.6257,-0.626,-0.6266,-0.6286,-0.629,-0.6277,-0.6304,-0.6308,-0.6317,-0.6315,-0.6323,-0.6324,-0.634,-0.634,-0.634,-0.6323,0,0,0,0,0,0,-0.6197,-0.6202,-0.6203,-0.6224,-0.623,-0.6245,-0.6257,-0.6261,-0.6268,-0.627,-0.6289,-0.6292,-0.6305,-0.6315,-0.6318,-0.6317,-0.6325,-0.634,-0.634,-0.634,-0.6323,-0.6322,-0.632,0,0,0,0,0,-0.6195,-0.6196,-0.6203,-0.6207,-0.6232,-0.6245,-0.6248,-0.6263,-0.6268,-0.627,-0.6282,-0.6292,-0.6315,-0.6316,-0.6319,-0.6318,-0.634,-0.634,-0.634,-0.6324,-0.6322,-0.632,0,0,0,0,0,0,-0.6174,-0.6199,-0.6207,-0.6215,-0.6228,-0.6249,-0.6251,-0.6261,-0.6272,-0.6273,-0.629,-0.6295,-0.6302,-0.6311,-0.6311,-0.6322,-0.6329,-0.6329,-0.6316,-0.6314,-0.6313,-0.631,-0.6326,0,0,0,0,0,-0.6171,-0.618,-0.6201,-0.6206,-0.6212,-0.6231,-0.6237,-0.6247,-0.6261,-0.6267,-0.628,-0.6292,-0.6302,-0.6309,-0.6319,-0.6325,-0.6329,-0.6326,-0.6324,-0.6323,-0.6323,-0.6327,-0.6326,-0.6338,-0.6338,-0.6338,0,0,-0.6163,-0.6178,-0.6183,-0.6202,-0.6214,-0.6223,-0.6235,-0.6244,-0.6251,-0.6268,-0.6277,-0.6287,-0.6302,-0.631,-0.6314,-0.6318,-0.6321,-0.6323,-0.6321,-0.6322,-0.6327,-0.6326,-0.6324,-0.6338,-0.6338,-0.6338,0,0,-0.6154,-0.6166,-0.6172,-0.6183,-0.62,-0.6213,-0.6214,-0.6234,-0.6241,-0.6251,-0.6265,-0.6272,-0.6289,-0.63,-0.6307,-0.6303,-0.6312,-0.6306,-0.6298,-0.6302,-0.6301,-0.63,-0.6299,-0.6298,-0.6306,-0.6306,-0.6305,0,-0.6142,-0.6157,-0.6174,-0.6182,-0.619,-0.6207,-0.6213,-0.6223,-0.6242,-0.6247,-0.6252,-0.6274,-0.6285,-0.6295,-0.6294,-0.63,-0.6302,-0.6304,-0.63,-0.6299,-0.6299,-0.6298,-0.6297,-0.6305,-0.6305,-0.6305,-0.6305,0,-0.6142,-0.6152,-0.6155,-0.6174,-0.6182,-0.6189,-0.6207,-0.6213,-0.6223,-0.6235,-0.6245,-0.6259,-0.6273,-0.6276,-0.6285,-0.6288,-0.629,-0.6296,-0.6304,-0.6296,-0.6296,-0.6296,-0.6303,-0.6304,-0.6304,-0.6304,0,0,-0.6121,-0.615,-0.615,-0.6159,-0.618,-0.6187,-0.6195,-0.621,-0.6215,-0.6228,-0.6235,-0.6249,-0.6256,-0.6264,-0.6275,-0.6278,-0.6274,-0.6285,-0.6285,-0.6282,-0.6278,-0.6273,-0.6273,-0.628,-0.628,-0.628,-0.6277,0,-0.6115,-0.6131,-0.6146,-0.6156,-0.6166,-0.6182,-0.6189,-0.6201,-0.6212,-0.6222,-0.6234,-0.6244,-0.6252,-0.6257,-0.6261,-0.6274,-0.6273,-0.6274,-0.6287,-0.6287,-0.6283,-0.6272,-0.6267,-0.6263,-0.6277,-0.6277,-0.6277,0,-0.6111,-0.6124,-0.6135,-0.6155,-0.6159,-0.6165,-0.618,-0.6189,-0.6204,-0.6211,-0.6221,-0.6233,-0.6241,-0.6248,-0.626,-0.626,-0.6266,-0.6273,-0.6273,-0.6275,-0.6282,-0.6274,-0.6262,-0.6262,-0.6277,-0.6277,-0.6277,0,-0.6095,-0.6115,-0.6124,-0.6132,-0.6155,-0.6159,-0.6169,-0.6184,-0.6192,-0.6204,-0.6209,-0.6222,-0.6229,-0.6239,-0.6254,-0.6257,-0.6264,-0.6272,-0.6271,-0.6271,-0.6272,-0.6272,-0.6261,-0.6275,-0.6275,-0.6275,-0.6275,0,-0.6087,-0.6093,-0.6118,-0.6123,-0.6131,-0.6148,-0.6155,-0.6166,-0.618,-0.6188,-0.6202,-0.6209,-0.6228,-0.6237,-0.6248,-0.6257,-0.626,-0.6266,-0.6269,-0.6265,-0.6265,-0.627,-0.627,-0.6275,-0.6275,-0.6275,-0.6275,0,-0.6071,-0.6087,-0.6099,-0.612,-0.6126,-0.613,-0.6148,-0.6154,-0.6166,-0.6176,-0.618,-0.6198,-0.621,-0.6225,-0.6242,-0.6249,-0.6257,-0.6261,-0.6252,-0.6254,-0.6252,-0.6252,-0.6245,-0.6245,-0.6259,-0.6258,-0.6258,0,-0.6065,-0.607,-0.6093,-0.6099,-0.6109,-0.612,-0.6128,-0.6145,-0.6153,-0.6171,-0.6175,-0.6188,-0.6199,-0.6217,-0.6231,-0.6244,-0.6249,-0.6246,-0.6251,-0.6247,-0.625,-0.6249,-0.625,-0.6244,-0.6244,-0.6244,-0.6244,0,-0.6053,-0.6061,-0.6073,-0.6088,-0.6097,-0.611,-0.6122,-0.6127,-0.6146,-0.6155,-0.6167,-0.6176,-0.6193,-0.6206,-0.622,-0.623,-0.624,-0.6242,-0.6243,-0.6239,-0.6233,-0.6237,-0.6249,-0.6242,-0.6242,-0.6242,-0.6243,-0.6243,-0.6042,-0.6048,-0.6065,-0.6078,-0.6089,-0.6101,-0.6108,-0.6121,-0.6132,-0.6148,-0.6157,-0.6169,-0.6184,-0.6205,-0.6214,-0.6224,-0.6228,-0.6229,-0.6229,-0.6229,-0.6228,-0.6232,-0.6227,-0.6227,-0.6227,-0.6227,-0.6227,0,-0.6032,-0.6044,-0.6055,-0.6073,-0.6083,-0.6092,-0.6107,-0.6114,-0.6125,-0.6139,-0.615,-0.6164,-0.6177,-0.6193,-0.6206,-0.6211,-0.6216,-0.6214,-0.6214,-0.6216,-0.6223,-0.6222,-0.621,-0.621,-0.621,-0.621,-0.621,-0.621,-0.6028,-0.6038,-0.6048,-0.6064,-0.6076,-0.6089,-0.6096,-0.6107,-0.6118,-0.6134,-0.6145,-0.6155,-0.617,-0.6184,-0.6196,-0.6201,-0.6205,-0.6202,-0.6207,-0.6214,-0.6215,-0.6217,-0.6216,-0.6202,-0.6202,-0.6199,-0.6199,-0.6199]}]]